FW6247 Weather Reports


Display with metric or nautical units.
time (UTC)temp
F
wind
direction
speed
MPH
gust
MPH
rain 1hr
in
rain 24hr
in
rain mn
in
humidity
%
barometer
mb
20260507191529 69 333 1.0 7.0 0.00 0.00 0.00 44 1018.6
20260507190034 67 360 2.0 8.0 0.00 0.00 0.00 47 1018.7
20260507184607 66 10 1.0 5.0 0.00 0.00 0.00 49 1018.9
20260507180113 66 19 2.0 8.0 0.00 0.00 0.00 52 1019.3
20260507174530 66 24 2.0 6.0 0.00 0.00 0.00 55 1019.3
20260507173030 63 2 1.0 7.0 0.00 0.00 0.00 60 1019.4
20260507171533 61 358 2.0 9.0 0.00 0.00 0.00 62 1019.5
20260507164606 61 356 1.0 7.0 0.00 0.00 0.00 68 1019.5
20260507163031 60 270 4.0 10.0 0.00 0.00 0.00 68 1019.4
20260507161539 59 278 4.0 10.0 0.00 0.00 0.00 74 1019.6
20260507160028 57 274 4.0 9.0 0.00 0.00 0.00 82 1019.9
20260507154531 55 255 3.0 7.0 0.00 0.00 0.00 86 1020.0
20260507144610 49 228 0.0 3.0 0.00 0.00 0.00 91 1020.2
20260507143031 47 230 0.0 4.0 0.00 0.00 0.00 91 1020.1
20260507141645 46 185 2.0 4.0 0.00 0.00 0.00 91 1020.0
20260507140106 45 180 0.0 1.0 0.00 0.00 0.00 90 1019.9
20260507134605 44 180 0.0 2.0 0.00 0.00 0.00 90 1019.7
20260507133029 45 67 0.0 1.0 0.00 0.00 0.00 90 1019.7
20260507124530 47 67 1.0 3.0 0.00 0.00 0.00 90 1019.6
20260507123030 47 67 2.0 5.0 0.00 0.00 0.00 90 1019.4
20260507121531 47 61 1.0 5.0 0.00 0.00 0.00 89 1019.4
20260507120030 47 60 1.0 4.0 0.00 0.00 0.00 88 1019.3
20260507113031 47 77 1.0 4.0 0.00 0.00 0.00 86 1019.1
20260507111608 48 133 0.0 3.0 0.00 0.00 0.00 86 1018.9
20260507110029 49 78 1.0 6.0 0.00 0.00 0.00 85 1018.9
20260507104529 50 79 1.0 4.0 0.00 0.00 0.00 85 1018.8
20260507103031 51 81 1.0 6.0 0.00 0.00 0.00 84 1018.8
20260507101603 52 83 0.0 5.0 0.00 0.00 0.00 82 1018.7
20260507100037 53 76 1.0 5.0 0.00 0.00 0.00 79 1018.8
20260507094606 0 0 0.0 0.0 0.00 0.00 0.00 100
20260507093051 54 353 0.0 4.0 0.00 0.00 0.00 77 1018.9
20260507091530 54 50 1.0 4.0 0.00 0.00 0.00 78 1018.8
20260507090031 53 41 0.0 5.0 0.00 0.00 0.00 80 1018.9
20260507083033 54 30 1.0 4.0 0.00 0.00 0.00 80 1019.0
20260507081531 54 55 1.0 5.0 0.00 0.00 0.00 80 1019.0
20260507080030 54 33 2.0 8.0 0.00 0.00 0.00 80 1019.1
20260507074531 54 51 2.0 5.0 0.00 0.00 0.00 79 1019.0
20260507073032 54 21 1.0 5.0 0.00 0.00 0.00 77 1018.9
20260507071532 54 331 0.0 3.0 0.00 0.00 0.00 77 1018.9
20260507070029 54 22 0.0 4.0 0.00 0.00 0.00 77 1019.0
20260507064537 54 15 0.0 2.0 0.00 0.00 0.00 75 1019.1
20260507063031 55 17 0.0 1.0 0.00 0.00 0.00 74 1019.2
20260507061535 55 35 0.0 3.0 0.00 0.00 0.00 70 1019.3
20260507060031 57 7 0.0 4.0 0.00 0.00 0.00 65 1019.4
20260507053031 57 288 3.0 7.0 0.00 0.00 0.00 61 1019.5
20260507051534 57 270 5.0 9.0 0.00 0.00 0.00 59 1019.4
20260507044539 59 242 4.0 7.0 0.00 0.00 0.00 55 1019.6
20260507041529 62 274 3.0 9.0 0.00 0.00 0.00 51 1019.6
20260507034532 62 268 5.0 14.0 0.00 0.00 0.00 51 1019.4
20260507033036 63 273 5.0 11.0 0.00 0.00 0.00 50 1019.2
20260507031532 64 283 7.0 15.0 0.00 0.00 0.00 49 1019.0
20260507030031 65 287 8.0 20.0 0.00 0.00 0.00 49 1018.9
20260507024530 65 286 8.0 19.0 0.00 0.00 0.00 50 1018.8
20260507023030 65 286 8.0 18.0 0.00 0.00 0.00 50 1018.8
20260507021532 65 290 7.0 17.0 0.00 0.00 0.00 50 1018.8
20260507020029 66 286 6.0 15.0 0.00 0.00 0.00 50 1018.7
20260507014529 66 286 5.0 11.0 0.00 0.00 0.00 49 1018.6
20260507013030 67 281 6.0 14.0 0.00 0.00 0.00 49 1018.5
20260507010108 68 291 6.0 14.0 0.00 0.00 0.00 46 1018.3
20260507004532 68 282 8.0 16.0 0.00 0.00 0.00 46 1018.2
20260507003032 69 280 7.0 16.0 0.00 0.00 0.00 47 1018.2
20260507001531 69 283 7.0 13.0 0.00 0.00 0.00 48 1018.1
20260507000031 71 302 6.0 15.0 0.00 0.00 0.00 47 1018.0
20260506234604 71 294 6.0 16.0 0.00 0.00 0.00 47 1017.8
20260506233107 73 302 4.0 12.0 0.00 0.00 0.00 44 1017.9
20260506231530 74 301 6.0 16.0 0.00 0.00 0.00 44 1017.9
20260506224607 75 291 6.0 16.0 0.00 0.00 0.00 45 1018.1
20260506223029 74 292 7.0 17.0 0.00 0.00 0.00 45 1018.3
20260506221528 75 300 7.0 18.0 0.00 0.00 0.00 45 1018.2
20260506214528 75 287 8.0 21.0 0.00 0.00 0.00 43 1018.0
20260506213035 75 267 9.0 21.0 0.00 0.00 0.00 45 1017.9
20260506211534 74 278 6.0 16.0 0.00 0.00 0.00 50 1018.1
20260506210106 74 305 6.0 17.0 0.00 0.00 0.00 49 1018.2
20260506203030 75 312 5.0 18.0 0.00 0.00 0.00 48 1018.1
20260506201540 75 326 3.0 12.0 0.00 0.00 0.00 50 1018.2
20260506200029 74 324 4.0 18.0 0.00 0.00 0.00 52 1018.3